Starlink 32148

operational
NORAD ID: 60263 Int'l Des: 2024-131 Owner: SPXS Country: US Constellation: starlink
LEOCIRCULAR

About Starlink 32148

Description loading...

Live Position

Loading 3D Globe...

Upcoming Passes

Altitude History

Altitude vs Time

uPlot chart will show altitude changes over time

Two-Line Element Set

1 60263U 24131J 25350.25266435 .00000616 00000-0 32950-4 0 9992
2 60263 53.1601 80.0144 0001374 70.6770 289.4379 15.30187910 78994
Epoch: Dec 16, 2025 • Age: 19 hours

Current Status

Altitude 487.1 km
Velocity 7.62 km/s
Sub-Earth Point -35.63°S, 51.85°W
Launch Date Jul 27, 2024
Age 1.3 years
Type internet

Technical Details

Classification Payload
Mass 730.00 kg
Dry Mass 700.00 kg
Total Mass 730.00 kg
Length 0.30 m
Diameter 4.10 m
Span 29.00 m
Shape Box + pan
Manufacturer SPXS
Bus Type Starlink V2M
Phase Status In Orbit
Owner/State SPXS/US

Large Constellations

Loading constellations...